SL-14 DEB, 43320

Orbit data source: Space-Track

SL-14 DEB, 43320 is space debris in LEO originally from a launch on Tue, 02 Dec 1986 UTC launched from the Plesetsk Missile And Space Complex (PKMTR). Debris objects in space refer to the collection of defunct objects orbiting the Earth. Examples of debris include non-operational satellites, rocket bodies, and fragments generated from explosions, collisions, or faulty payload assembly.

Loading next visibility...
Identifier
43320, 1986-094C
Orbit
LEO
Country
Flag of CISCIS
Related business
Manufacturer
Unknown
Mission
Spacecraft
Bus & Motor
Unknown
Mass
Unknown
Launch date (UTC)
1986-12-02 (39 years ago)
Launch vehicle
Unknown
Launch site
Plesetsk Missile And Space Complex (PKMTR)
Object type
Payload
Rocket body
Debris
Shape & HBR
Unknown shape, 0.1 m
Radar Cross Section
Small (<0.1 m²)

Expand to show TLE details & history
Last TLE update: 2 weeks ago

TLE from 2 weeks ago
0 SL-14 DEB
1 43320U 86094C   26134.40860421  .00000031  00000-0  15416-3 0  9994
2 43320  82.6093  26.7665 0004044 130.8020 229.3411 12.42184340484579
Epoch: 2026-05-14T09:48Z
TLE epoch observation values (Epoch: 2026-05-14T09:48:23.403Z)
Latitude
-0.00002°
Longitude
7.51429°
Altitude
1,502.135 km
Speed
7.112 km/s
True Right ascension
01h 47m 03s
True Declination
0° 00' 00"
Sunlit
Object was in daylight at epoch
Visualization orbit readout
Latitude
Unknown
Longitude
Unknown
Altitude
Unknown
Speed
Unknown
Apparent Right ascension
Unknown
Apparent Declination
Unknown
Sunlit
N/A
Visualization observer readout
Local Sidereal Time
15:25:07
Azimuth
Unknown
Elevation
Unknown
Doppler factor
Unknown
Orbital elements
Apogee altitude
1,497.889 km
Perigee altitude
1,491.521 km
Semi-major axis
7,872.842 km
Eccentricity
0.0004
Inclination
82.6093°
RAAN
26.7665°
Arg. of periapsis
130.802°
True anomaly
229.30596°
Mean anomaly
229.3411°
Eccentric anomaly
229.32353°
Mean motion
3.10703 °/min
Orbital period
115.87 mins
BSTAR
0.00015416
Loading maneuver chart data...
Computing Atmospheric mass density...
Loading historical data...
Loading historical data...
Loading historical data...
Loading historical data...
Loading historical data...
Loading historical data...
Loading historical data...
Other satellites on launch #94 in the year 1986 (1986-12-02 UTC)

Documentation

Showing up to 5 results
|